Keahole Point, HI

3:50 AM HST on December 11, 2017 (GMT -1000)
Kona International At Keahole

Weather History for PHKO - March, 2012

Change the Weather History Date:

Friday, March 23, 2012

  Actual Average Record
Temperature  
Mean Temperature 76 °F -  
Max Temperature 80 °F 79 °F 87 °F (1982)
Min Temperature 71 °F 68 °F 64 °F (2016)
Cooling Degree Days 10    
Growing Degree Days 26 (Base 50)    
Moisture  
Dew Point 61 °F    
Average Humidity 61    
Maximum Humidity 68    
Minimum Humidity 50    
Precipitation  
Precipitation 0.00 in - - ()
Sea Level Pressure  
Sea Level Pressure 30.00 in    
Wind  
Wind Speed 6 mph (SSE)    
Max Wind Speed 15 mph    
Max Gust Speed -    
Visibility 10 miles    
Events      
Averages and records for this station are not official NWS values.
T = Trace of Precipitation, MM = Missing Value Source: NWS Daily Summary

Daily Weather History Graph

Daily Weather History Graph

Search for Another Location

Airport or City:

Trip Planner

Search our weather history database for the weather conditions in past years. The results will help you decide how hot, cold, wet, or windy it might be!

Date:

Astronomy

Mar. 23, 2012 Rise Set
Actual Time 6:25 AM HST 6:36 PM HST
Civil Twilight 6:03 AM HST 6:58 PM HST
Nautical Twilight 5:37 AM HST 7:23 PM HST
Astronomical Twilight 5:11 AM HST 7:49 PM HST
Moon 6:55 AM HST (3/23) 7:48 PM HST (3/23)
Length of Visible Light 12h 55m
Length of Day
12h 11m
New Moon, 2% of the Moon is Illuminated
Mar 23
New Moon
Mar 30
First Quarter
Apr 6
Full
Apr 13
Last Quarter
Apr 20
New

Hourly Weather History & Observations

Time (HST) Temp. Heat Index Dew Point Humidity Pressure Visibility Wind Dir Wind Speed Gust Speed Precip Events Conditions
12:53 AM 73.0 °F - 57.0 °F 57% 30.00 in 10.0 mi Calm Calm - N/A   Clear
1:53 AM 72.0 °F - 59.0 °F 64% 29.99 in 10.0 mi East 4.6 mph - N/A   Clear
2:53 AM 72.0 °F - 57.9 °F 61% 29.98 in 10.0 mi East 5.8 mph - N/A   Clear
3:53 AM 71.1 °F - 60.1 °F 68% 29.96 in 10.0 mi ESE 5.8 mph - N/A   Clear
4:53 AM 72.0 °F - 61.0 °F 68% 29.96 in 10.0 mi East 8.1 mph - N/A   Mostly Cloudy
5:53 AM 71.1 °F - 60.1 °F 68% 29.98 in 10.0 mi East 5.8 mph - N/A   Clear
6:53 AM 71.1 °F - 60.1 °F 68% 30.01 in 10.0 mi East 6.9 mph - N/A   Clear
7:53 AM 75.0 °F - 63.0 °F 66% 30.03 in 10.0 mi SSE 8.1 mph - N/A   Clear
8:53 AM 75.9 °F - 63.0 °F 64% 30.04 in 10.0 mi South 5.8 mph - N/A   Clear
9:53 AM 78.1 °F - 63.0 °F 60% 30.04 in 10.0 mi West 6.9 mph - N/A   Clear
10:53 AM 79.0 °F - 63.0 °F 58% 30.04 in 10.0 mi WSW 8.1 mph - N/A   Partly Cloudy
11:53 AM 79.0 °F - 64.0 °F 60% 30.03 in 10.0 mi WSW 8.1 mph - N/A   Clear
12:53 PM 79.0 °F - 64.9 °F 62% 30.01 in 10.0 mi WSW 11.5 mph - N/A   Clear
1:53 PM 80.1 °F 81.9 °F 64.9 °F 60% 29.99 in 10.0 mi SW 11.5 mph - N/A   Clear
2:53 PM 80.1 °F 81.7 °F 64.0 °F 58% 29.97 in 10.0 mi South 10.4 mph - N/A   Clear
3:53 PM 80.1 °F 81.5 °F 63.0 °F 56% 29.96 in 10.0 mi South 13.8 mph - N/A   Clear
4:53 PM 80.1 °F 81.5 °F 63.0 °F 56% 29.98 in 10.0 mi South 15.0 mph - N/A   Clear
5:53 PM 79.0 °F - 62.1 °F 56% 29.98 in 10.0 mi SSE 12.7 mph - N/A   Scattered Clouds
6:53 PM 75.9 °F - 63.0 °F 64% 30.00 in 10.0 mi South 6.9 mph - N/A   Clear
7:53 PM 75.0 °F - 62.1 °F 64% 30.01 in 10.0 mi ESE 3.5 mph - N/A   Partly Cloudy
8:53 PM 75.0 °F - 55.0 °F 50% 30.01 in 10.0 mi NE 4.6 mph - N/A   Clear
9:53 PM 73.9 °F - 57.9 °F 57% 30.02 in 10.0 mi NNE 6.9 mph - N/A   Partly Cloudy
10:53 PM 73.0 °F - 61.0 °F 66% 30.02 in 10.0 mi SE 8.1 mph - N/A   Clear
11:53 PM 73.9 °F - 61.0 °F 64% 30.03 in 10.0 mi South 8.1 mph - N/A   Clear